Regional Weather Roundup
Issued by NWS

Home | Current Version | Previous Version | Graphics & Text | Print | Product List | Glossary On
Versions: 1 2 3 4 5 6 7 8 9 10 11 12 13 14 15 16 17 18 19 20 21 22 23 24 25 26 27 28 29 30 31 32 33 34 35 36 37 38 39 40 41 42 43 44 45 46 47 48 49 50
000
ASUS43 KDMX 251807
RWRIA

WEATHER ROUNDUP FOR IOWA
NATIONAL WEATHER SERVICE DES MOINES IA
1200 PM CST THU DEC 25 2014

NOTE: "FAIR" INDICATES FEW OR NO CLOUDS BELOW 12,000 FEET WITH NO
SIGNIFICANT WEATHER AND/OR OBSTRUCTIONS TO VISIBILITY.

* - THESE STATIONS ARE NOT NWS STATIONS...THUS NOT UNDER NWS
QUALITY CONTROL.  THEY ALSO DO NOT REPORT WEATHER SUCH
AS PRECIPITATION OR FOG.

IAZ001>003-012>014-020>022-031>034-043>046-251900-
   NORTHWEST IOWA

CITY           SKY/WX    TMP DP  RH WIND       PRES   REMARKS
CARROLL *      SUNNY     37  32  81 S13G18    29.68F WCI  29
CHEROKEE *     MOSUNNY   35  31  84 SE3       29.67F
DENISON *      SUNNY     39  32  75 S13G18    29.64F WCI  32
LE MARS *      SUNNY     36  30  80 S9        29.65F WCI  29
ORANGE CITY *  SUNNY     37  30  75 S6        29.65F WCI  33
SHELDON *      SUNNY     36  30  80 S5G12     29.65F WCI  32
SIOUX CITY     MOSUNNY   37  31  78 SE8       29.65F WCI  31
6HR MIN TEMP:  29; 6HR MAX TEMP:  37;

SPENCER        MOSUNNY   37  29  72 S7        29.68F WCI  32
6HR MIN TEMP:  28; 6HR MAX TEMP:  37;

STORM LAKE *   SUNNY     34  30  86 S14       29.66F WCI  24
$$

IAZ055>058-069>071-079>083-090>094-251900-
   SOUTHWEST IOWA

CITY           SKY/WX    TMP DP  RH WIND       PRES   REMARKS
ATLANTIC *     SUNNY     41  32  70 S13G23    29.68F
AUDUBON *      SUNNY     39  30  70 S13G18    29.68F WCI  32
CLARINDA *     SUNNY     45  32  61 S15G24    29.71F
COUNCIL BLFS * SUNNY     43  34  70 S16       29.63F
CRESTON *      SUNNY     43  32  65 S24G31    29.72F
HARLAN  *      SUNNY     41  34  75 S16G22    29.69F
LAMONI         MOSUNNY   44  31  60 S15G24    29.76F
6HR MIN TEMP:  28; 6HR MAX TEMP:  44;

RED OAK *      SUNNY     43  32  65 S17G24    29.68F
SHENANDOAH *   SUNNY     43  32  65 S17       29.68F
$$

IAZ047>049-059>061-072>074-084-251900-
   CENTRAL IOWA

CITY           SKY/WX    TMP DP  RH WIND       PRES   REMARKS
AMES           MOSUNNY   40  30  67 S9        29.75F WCI  34
6HR MIN TEMP:  30; 6HR MAX TEMP:  40;

ANKENY *       SUNNY     41  32  70 S10       29.75F
CHARITON *     SUNNY     45  34  65 S16G26    29.78S
DES MOINES     PTSUNNY   43  30  60 S14       29.75F
6HR MIN TEMP:  31; 6HR MAX TEMP:  43;

GRINNELL*      PTSUNNY   41  32  70 S16G22    29.79F
KNOXVILLE *    SUNNY     45  32  61 S14G22    29.77F
MARSHALLTOWN   PTSUNNY   38  30  73 S12       29.76F WCI  30
6HR MIN TEMP:  30; 6HR MAX TEMP:  38;

PELLA *        MOSUNNY   44  32  63 S16       29.80F
PERRY *          N/A     41  34  75 S13       29.72F
$$

IAZ004>006-015-016-023>025-035-036-251900-
   NORTH CENTRAL IOWA

CITY           SKY/WX    TMP DP  RH WIND       PRES   REMARKS
ALGONA *       SUNNY     34  34 100 S13       29.71F WCI  25
CLARION *      SUNNY     34  34 100 S13       29.72F WCI  25
ESTHERVILLE    PTSUNNY   34  29  82 S9        29.69F WCI  27
6HR MIN TEMP:  28; 6HR MAX TEMP:  34;

FORT DODGE *   MOSUNNY   36  28  75 S12       29.72F WCI  27
MASON CITY     PTSUNNY   35  30  82 S13       29.75F WCI  26
6HR MIN TEMP:  29; 6HR MAX TEMP:  36;

FOREST CITY *  SUNNY     34  28  80 S9        29.73F WCI  26
IOWA FALLS *     N/A     37  32  81 S9        29.76F WCI  31
$$

IAZ007>011-017>019-026>030-037>042-050>054-066-251900-
   NORTHEAST IOWA

CITY           SKY/WX    TMP DP  RH WIND       PRES   REMARKS
CEDAR RAPIDS   SUNNY     41  32  70 S16G22    29.83F
6HR MIN TEMP:  30; 6HR MAX TEMP:  41;

CHARLES CITY * MOSUNNY   37  32  81 S15       29.77F WCI  28
CLINTON *      MOSUNNY   43  30  61 S14       29.92F
DECORAH *      PTSUNNY   36  30  80 S10G17    29.78F WCI  28
DUBUQUE        MOSUNNY   39  31  72 S17       29.84F WCI  30
6HR MIN TEMP:  30; 6HR MAX TEMP:  39;

MONTICELLO *   SUNNY     41  34  75 S14       29.84F
OELWEIN *      MOSUNNY   37  32  81 S16       29.80F WCI  28
WATERLOO       LGT RAIN  38  30  73 S13       29.79F WCI  30
6HR MIN TEMP:  30; 6HR MAX TEMP:  39; 6HR PCP: TRACE;

$$

IAZ064-065-067-068-078-251900-
   EAST CENTRAL IOWA

CITY           SKY/WX    TMP DP  RH WIND       PRES   REMARKS
DAVENPORT      MOSUNNY   42  31  64 S17       29.89F
6HR MIN TEMP:  33; 6HR MAX TEMP:  42;

IOWA CITY      SUNNY     43  33  68 S12       29.87F
6HR MIN TEMP:  31; 6HR MAX TEMP:  43;

MT. PLEASANT * MOSUNNY   43  33  68 S14       29.88F
MUSCATINE *    SUNNY     45  32  61 S13       29.88F
QUAD CITIES    MOSUNNY   44  32  62 S10       29.89F
6HR MIN TEMP:  33; 6HR MAX TEMP:  44;

$$

IAZ062-063-075>077-085>089-095>099-251900-
   SOUTHEAST IOWA

CITY           SKY/WX    TMP DP  RH WIND       PRES   REMARKS
BURLINGTON     SUNNY     44  34  67 S14       29.89F
6HR MIN TEMP:  32; 6HR MAX TEMP:  44;

FAIRFIELD *    SUNNY     45  32  61 S13       29.85F
FORT MADISON * SUNNY     45  36  70 S12G21    29.90F
KEOKUK *       SUNNY     43  34  70 S13G20    29.89S
OSKALOOSA *      N/A     44  32  63 S20       29.82F
CENTERVILLE *  SUNNY     45  32  61 S16       29.82F
OTTUMWA        MOSUNNY   45  32  60 S15       29.82F
6HR MIN TEMP:  31; 6HR MAX TEMP:  45;

WASHINGTON *   SUNNY     43  34  70 S17G23    29.85F
$$

ABBREVIATIONS USED IN REMARKS
   TC - TEMPERATURES IN CELSIUS
  WCI - WIND CHILL INDEX
   HX - HEAT INDEX
  VSB - VISIBILITY
$$




USA.gov is the U.S. government's official web portal to all federal, state and local government web resources and services.